Year,Month,Day,Hour,Minute,Value (Times are PST for temperature in C)
2017,09,02,00,00,15.50
2017,09,02,00,01,15.50
2017,09,02,00,02,15.50
2017,09,02,00,03,15.50
2017,09,02,00,04,15.40
2017,09,02,00,05,15.40
2017,09,02,00,06,15.40
2017,09,02,00,07,15.40
2017,09,02,00,08,15.40
2017,09,02,00,09,15.40
2017,09,02,00,10,15.40
2017,09,02,00,11,15.40
2017,09,02,00,12,15.40
2017,09,02,00,13,15.30
2017,09,02,00,14,15.30
2017,09,02,00,15,15.30
2017,09,02,00,16,15.30
2017,09,02,00,17,15.30
2017,09,02,00,18,15.30
2017,09,02,00,19,15.30
2017,09,02,00,20,15.30
2017,09,02,00,21,15.30
2017,09,02,00,22,15.30
2017,09,02,00,23,15.20
2017,09,02,00,24,15.20
2017,09,02,00,25,15.20
2017,09,02,00,26,15.20
2017,09,02,00,27,15.20
2017,09,02,00,28,15.20
2017,09,02,00,29,15.20
2017,09,02,00,30,15.20
2017,09,02,00,31,15.20
2017,09,02,00,32,15.20
2017,09,02,00,33,15.20
2017,09,02,00,34,15.20
2017,09,02,00,35,15.20
2017,09,02,00,36,15.20
2017,09,02,00,37,15.20
2017,09,02,00,38,15.20
2017,09,02,00,39,15.20
2017,09,02,00,40,15.20
2017,09,02,00,41,15.10
2017,09,02,00,42,15.10
2017,09,02,00,43,15.10
2017,09,02,00,44,15.10
2017,09,02,00,45,15.10
2017,09,02,00,46,15.10
2017,09,02,00,47,15.10
2017,09,02,00,48,15.10
2017,09,02,00,49,15.10
2017,09,02,00,50,15.10
2017,09,02,00,51,15.10
2017,09,02,00,52,15.00
2017,09,02,00,53,15.00
2017,09,02,00,54,15.00
2017,09,02,00,55,15.00
2017,09,02,00,56,15.00
2017,09,02,00,57,15.00
2017,09,02,00,58,15.00
2017,09,02,00,59,15.00
2017,09,02,01,00,15.00
2017,09,02,01,01,15.00
2017,09,02,01,02,15.00
2017,09,02,01,03,15.00
2017,09,02,01,04,15.00
2017,09,02,01,05,15.00
2017,09,02,01,06,14.90
2017,09,02,01,07,14.90
2017,09,02,01,08,14.90
2017,09,02,01,09,14.90
2017,09,02,01,10,14.90
2017,09,02,01,11,14.90
2017,09,02,01,12,14.90
2017,09,02,01,13,14.90
2017,09,02,01,14,14.90
2017,09,02,01,15,14.90
2017,09,02,01,16,14.90
2017,09,02,01,17,14.80
2017,09,02,01,18,14.80
2017,09,02,01,19,14.80
2017,09,02,01,20,14.80
2017,09,02,01,21,14.80
2017,09,02,01,22,14.80
2017,09,02,01,23,14.80
2017,09,02,01,24,14.80
2017,09,02,01,25,14.80
2017,09,02,01,26,14.80
2017,09,02,01,27,14.80
2017,09,02,01,28,14.80
2017,09,02,01,29,14.80
2017,09,02,01,30,14.80
2017,09,02,01,31,14.80
2017,09,02,01,32,14.70
2017,09,02,01,33,14.70
2017,09,02,01,34,14.70
2017,09,02,01,35,14.70
2017,09,02,01,36,14.70
2017,09,02,01,37,14.70
2017,09,02,01,38,14.70
2017,09,02,01,39,14.70
2017,09,02,01,40,14.70
2017,09,02,01,41,14.70
2017,09,02,01,42,14.70
2017,09,02,01,43,14.70
2017,09,02,01,44,14.70
2017,09,02,01,45,14.70
2017,09,02,01,46,14.70
2017,09,02,01,47,14.60
2017,09,02,01,48,14.60
2017,09,02,01,49,14.60
2017,09,02,01,50,14.60
2017,09,02,01,51,14.60
2017,09,02,01,52,14.60
2017,09,02,01,53,14.60
2017,09,02,01,54,14.60
2017,09,02,01,55,14.60
2017,09,02,01,56,14.50
2017,09,02,01,57,14.50
2017,09,02,01,58,14.50
2017,09,02,01,59,14.50
2017,09,02,02,00,14.50
2017,09,02,02,01,14.50
2017,09,02,02,02,14.50
2017,09,02,02,03,14.50
2017,09,02,02,04,14.50
2017,09,02,02,05,14.50
2017,09,02,02,06,14.50
2017,09,02,02,07,14.50
2017,09,02,02,08,14.40
2017,09,02,02,09,14.40
2017,09,02,02,10,14.40
2017,09,02,02,11,14.40
2017,09,02,02,12,14.40
2017,09,02,02,13,14.40
2017,09,02,02,14,14.40
2017,09,02,02,15,14.40
2017,09,02,02,16,14.40
2017,09,02,02,17,14.40
2017,09,02,02,18,14.40
2017,09,02,02,19,14.40
2017,09,02,02,20,14.40
2017,09,02,02,21,14.40
2017,09,02,02,22,14.40
2017,09,02,02,23,14.40
2017,09,02,02,24,14.40
2017,09,02,02,25,14.40
2017,09,02,02,26,14.40
2017,09,02,02,27,14.40
2017,09,02,02,28,14.40
2017,09,02,02,29,14.40
2017,09,02,02,30,14.40
2017,09,02,02,31,14.40
2017,09,02,02,32,14.40
2017,09,02,02,33,14.40
2017,09,02,02,34,14.40
2017,09,02,02,35,14.40
2017,09,02,02,36,14.40
2017,09,02,02,37,14.40
2017,09,02,02,38,14.40
2017,09,02,02,39,14.40
2017,09,02,02,40,14.30
2017,09,02,02,41,14.30
2017,09,02,02,42,14.30
2017,09,02,02,43,14.30
2017,09,02,02,44,14.30
2017,09,02,02,45,14.30
2017,09,02,02,46,14.30
2017,09,02,02,47,14.30
2017,09,02,02,48,14.30
2017,09,02,02,49,14.30
2017,09,02,02,50,14.20
2017,09,02,02,51,14.20
2017,09,02,02,52,14.20
2017,09,02,02,53,14.20
2017,09,02,02,54,14.20
2017,09,02,02,55,14.20
2017,09,02,02,56,14.20
2017,09,02,02,57,14.20
2017,09,02,02,58,14.20
2017,09,02,02,59,14.20
2017,09,02,03,00,14.20
2017,09,02,03,01,14.20
2017,09,02,03,02,14.20
2017,09,02,03,03,14.20
2017,09,02,03,04,14.20
2017,09,02,03,05,14.20
2017,09,02,03,06,14.20
2017,09,02,03,07,14.20
2017,09,02,03,08,14.20
2017,09,02,03,09,14.20
2017,09,02,03,10,14.20
2017,09,02,03,11,14.20
2017,09,02,03,12,14.20
2017,09,02,03,13,14.20
2017,09,02,03,14,14.20
2017,09,02,03,15,14.20
2017,09,02,03,16,14.20
2017,09,02,03,17,14.20
2017,09,02,03,18,14.20
2017,09,02,03,19,14.20
2017,09,02,03,20,14.20
2017,09,02,03,21,14.20
2017,09,02,03,22,14.20
2017,09,02,03,23,14.10
2017,09,02,03,24,14.10
2017,09,02,03,25,14.10
2017,09,02,03,26,14.10
2017,09,02,03,27,14.10
2017,09,02,03,28,14.10
2017,09,02,03,29,14.10
2017,09,02,03,30,14.10
2017,09,02,03,31,14.10
2017,09,02,03,32,14.10
2017,09,02,03,33,14.10
2017,09,02,03,34,14.10
2017,09,02,03,35,14.10
2017,09,02,03,36,14.10
2017,09,02,03,37,14.10
2017,09,02,03,38,14.00
2017,09,02,03,39,14.00
2017,09,02,03,40,14.00
2017,09,02,03,41,14.00
2017,09,02,03,42,14.00
2017,09,02,03,43,14.00
2017,09,02,03,44,14.00
2017,09,02,03,45,14.10
2017,09,02,03,46,14.10
2017,09,02,03,47,14.10
2017,09,02,03,48,14.10
2017,09,02,03,49,14.10
2017,09,02,03,50,14.10
2017,09,02,03,51,14.10
2017,09,02,03,52,14.10
2017,09,02,03,53,14.10
2017,09,02,03,54,14.10
2017,09,02,03,55,14.10
2017,09,02,03,56,14.10
2017,09,02,03,57,14.10
2017,09,02,03,58,14.10
2017,09,02,03,59,14.10
2017,09,02,04,00,14.10
2017,09,02,04,01,14.10
2017,09,02,04,02,14.10
2017,09,02,04,03,14.10
2017,09,02,04,04,14.10
2017,09,02,04,05,14.10
2017,09,02,04,06,14.10
2017,09,02,04,07,14.10
2017,09,02,04,08,14.10
2017,09,02,04,09,14.10
2017,09,02,04,10,14.10
2017,09,02,04,11,14.10
2017,09,02,04,12,14.10
2017,09,02,04,13,14.10
2017,09,02,04,14,14.10
2017,09,02,04,15,14.10
2017,09,02,04,16,14.10
2017,09,02,04,17,14.10
2017,09,02,04,18,14.00
2017,09,02,04,19,14.00
2017,09,02,04,20,14.00
2017,09,02,04,21,14.00
2017,09,02,04,22,14.10
2017,09,02,04,23,14.00
2017,09,02,04,24,14.00
2017,09,02,04,25,14.00
2017,09,02,04,26,14.00
2017,09,02,04,27,14.00
2017,09,02,04,28,14.00
2017,09,02,04,29,14.00
2017,09,02,04,30,14.00
2017,09,02,04,31,14.00
2017,09,02,04,32,14.00
2017,09,02,04,33,14.00
2017,09,02,04,34,14.00
2017,09,02,04,35,14.00
2017,09,02,04,36,14.00
2017,09,02,04,37,14.00
2017,09,02,04,38,13.90
2017,09,02,04,39,13.90
2017,09,02,04,40,13.90
2017,09,02,04,41,13.90
2017,09,02,04,42,13.90
2017,09,02,04,43,13.90
2017,09,02,04,44,13.90
2017,09,02,04,45,13.90
2017,09,02,04,46,13.90
2017,09,02,04,47,13.90
2017,09,02,04,48,13.90
2017,09,02,04,49,13.90
2017,09,02,04,50,13.90
2017,09,02,04,51,13.90
2017,09,02,04,52,13.90
2017,09,02,04,53,13.90
2017,09,02,04,54,13.90
2017,09,02,04,55,13.90
2017,09,02,04,56,13.90
2017,09,02,04,57,13.90
2017,09,02,04,58,13.90
2017,09,02,04,59,13.90
2017,09,02,05,00,13.90
2017,09,02,05,01,13.90
2017,09,02,05,02,13.80
2017,09,02,05,03,13.80
2017,09,02,05,04,13.80
2017,09,02,05,05,13.80
2017,09,02,05,06,13.80
2017,09,02,05,07,13.80
2017,09,02,05,08,13.80
2017,09,02,05,09,13.80
2017,09,02,05,10,13.80
2017,09,02,05,11,13.80
2017,09,02,05,12,13.80
2017,09,02,05,13,13.70
2017,09,02,05,14,13.70
2017,09,02,05,15,13.70
2017,09,02,05,16,13.70
2017,09,02,05,17,13.70
2017,09,02,05,18,13.70
2017,09,02,05,19,13.70
2017,09,02,05,20,13.70
2017,09,02,05,21,13.70
2017,09,02,05,22,13.70
2017,09,02,05,23,13.70
2017,09,02,05,24,13.70
2017,09,02,05,25,13.70
2017,09,02,05,26,13.70
2017,09,02,05,27,13.70
2017,09,02,05,28,13.70
2017,09,02,05,29,13.70
2017,09,02,05,30,13.70
2017,09,02,05,31,13.70
2017,09,02,05,32,13.70
2017,09,02,05,33,13.70
2017,09,02,05,34,13.70
2017,09,02,05,35,13.70
2017,09,02,05,36,13.70
2017,09,02,05,37,13.60
2017,09,02,05,38,13.60
2017,09,02,05,39,13.60
2017,09,02,05,40,13.60
2017,09,02,05,41,13.60
2017,09,02,05,42,13.60
2017,09,02,05,43,13.60
2017,09,02,05,44,13.60
2017,09,02,05,45,13.60
2017,09,02,05,46,13.60
2017,09,02,05,47,13.50
2017,09,02,05,48,13.50
2017,09,02,05,49,13.50
2017,09,02,05,50,13.50
2017,09,02,05,51,13.50
2017,09,02,05,52,13.50
2017,09,02,05,53,13.50
2017,09,02,05,54,13.50
2017,09,02,05,55,13.50
2017,09,02,05,56,13.50
2017,09,02,05,57,13.50
2017,09,02,05,58,13.40
2017,09,02,05,59,13.40
2017,09,02,06,00,13.40
2017,09,02,06,01,13.40
2017,09,02,06,02,13.40
2017,09,02,06,03,13.40
2017,09,02,06,04,13.40
2017,09,02,06,05,13.40
2017,09,02,06,06,13.40
2017,09,02,06,07,13.40
2017,09,02,06,08,13.40
2017,09,02,06,09,13.40
2017,09,02,06,10,13.40
2017,09,02,06,11,13.40
2017,09,02,06,12,13.40
2017,09,02,06,13,13.40
2017,09,02,06,14,13.40
2017,09,02,06,15,13.40
2017,09,02,06,16,13.40
2017,09,02,06,17,13.40
2017,09,02,06,18,13.40
2017,09,02,06,19,13.40
2017,09,02,06,20,13.30
2017,09,02,06,21,13.30
2017,09,02,06,22,13.30
2017,09,02,06,23,13.30
2017,09,02,06,24,13.30
2017,09,02,06,25,13.30
2017,09,02,06,26,13.30
2017,09,02,06,27,13.30
2017,09,02,06,28,13.30
2017,09,02,06,29,13.30
2017,09,02,06,30,13.30
2017,09,02,06,31,13.20
2017,09,02,06,32,13.20
2017,09,02,06,33,13.20
2017,09,02,06,34,13.20
2017,09,02,06,35,13.20
2017,09,02,06,36,13.20
2017,09,02,06,37,13.20
2017,09,02,06,38,13.20
2017,09,02,06,39,13.20
2017,09,02,06,40,13.20
2017,09,02,06,41,13.20
2017,09,02,06,42,13.20
2017,09,02,06,43,13.20
2017,09,02,06,44,13.20
2017,09,02,06,45,13.20
2017,09,02,06,46,13.20
2017,09,02,06,47,13.20
2017,09,02,06,48,13.20
2017,09,02,06,49,13.20
2017,09,02,06,50,13.20
2017,09,02,06,51,13.20
2017,09,02,06,52,13.20
2017,09,02,06,53,13.20
2017,09,02,06,54,13.20
2017,09,02,06,55,13.20
2017,09,02,06,56,13.20
2017,09,02,06,57,13.20
2017,09,02,06,58,13.20
2017,09,02,06,59,13.20
2017,09,02,07,00,13.20
2017,09,02,07,01,13.20
2017,09,02,07,02,13.20
2017,09,02,07,03,13.20
2017,09,02,07,04,13.20
2017,09,02,07,05,13.20
2017,09,02,07,06,13.20
2017,09,02,07,07,13.20
2017,09,02,07,08,13.20
2017,09,02,07,09,13.20
2017,09,02,07,10,13.20
2017,09,02,07,11,13.20
2017,09,02,07,12,13.20
2017,09,02,07,13,13.30
2017,09,02,07,14,13.30
2017,09,02,07,15,13.30
2017,09,02,07,16,13.30
2017,09,02,07,17,13.30
2017,09,02,07,18,13.30
2017,09,02,07,19,13.30
2017,09,02,07,20,13.30
2017,09,02,07,21,13.30
2017,09,02,07,22,13.30
2017,09,02,07,23,13.30
2017,09,02,07,24,13.30
2017,09,02,07,25,13.30
2017,09,02,07,26,13.40
2017,09,02,07,27,13.40
2017,09,02,07,28,13.40
2017,09,02,07,29,13.40
2017,09,02,07,30,13.40
2017,09,02,07,31,13.40
2017,09,02,07,32,13.50
2017,09,02,07,33,13.40
2017,09,02,07,34,13.50
2017,09,02,07,35,13.50
2017,09,02,07,36,13.50
2017,09,02,07,37,13.60
2017,09,02,07,38,13.60
2017,09,02,07,39,13.60
2017,09,02,07,40,13.60
2017,09,02,07,41,13.60
2017,09,02,07,42,13.70
2017,09,02,07,43,13.70
2017,09,02,07,44,13.70
2017,09,02,07,45,13.70
2017,09,02,07,46,13.80
2017,09,02,07,47,13.80
2017,09,02,07,48,13.80
2017,09,02,07,49,13.90
2017,09,02,07,50,13.90
2017,09,02,07,51,13.90
2017,09,02,07,52,13.90
2017,09,02,07,53,14.00
2017,09,02,07,54,14.00
2017,09,02,07,55,14.10
2017,09,02,07,56,14.10
2017,09,02,07,57,14.10
2017,09,02,07,58,14.20
2017,09,02,07,59,14.20
2017,09,02,08,00,14.20
2017,09,02,08,01,14.30
2017,09,02,08,02,14.30
2017,09,02,08,03,14.30
2017,09,02,08,04,14.40
2017,09,02,08,05,14.40
2017,09,02,08,06,14.50
2017,09,02,08,07,14.50
2017,09,02,08,08,14.60
2017,09,02,08,09,14.60
2017,09,02,08,10,14.70
2017,09,02,08,11,14.70
2017,09,02,08,12,14.70
2017,09,02,08,13,14.80
2017,09,02,08,14,14.80
2017,09,02,08,15,14.80
2017,09,02,08,16,14.90
2017,09,02,08,17,15.00
2017,09,02,08,18,15.00
2017,09,02,08,19,15.10
2017,09,02,08,20,15.20
2017,09,02,08,21,15.30
2017,09,02,08,22,15.40
2017,09,02,08,23,15.50
2017,09,02,08,24,15.50
2017,09,02,08,25,15.60
2017,09,02,08,26,15.70
2017,09,02,08,27,15.70
2017,09,02,08,28,15.80
2017,09,02,08,29,15.90
2017,09,02,08,30,16.00
2017,09,02,08,31,16.10
2017,09,02,08,32,16.20
2017,09,02,08,33,16.30
2017,09,02,08,34,16.40
2017,09,02,08,35,16.50
2017,09,02,08,36,16.60
2017,09,02,08,37,16.80
2017,09,02,08,38,16.90
2017,09,02,08,39,17.00
2017,09,02,08,40,17.20
2017,09,02,08,41,17.30
2017,09,02,08,42,17.40
2017,09,02,08,43,17.50
2017,09,02,08,44,17.60
2017,09,02,08,45,17.80
2017,09,02,08,46,17.90
2017,09,02,08,47,18.00
2017,09,02,08,48,18.10
2017,09,02,08,49,18.30
2017,09,02,08,50,18.40
2017,09,02,08,51,18.50
2017,09,02,08,52,18.60
2017,09,02,08,53,18.70
2017,09,02,08,54,18.80
2017,09,02,08,55,18.90
2017,09,02,08,56,19.00
2017,09,02,08,57,19.10
2017,09,02,08,58,19.20
2017,09,02,08,59,19.30
2017,09,02,09,00,19.40
2017,09,02,09,01,19.50
2017,09,02,09,02,19.60
2017,09,02,09,03,19.70
2017,09,02,09,04,19.80
2017,09,02,09,05,19.90
2017,09,02,09,06,20.00
2017,09,02,09,07,20.10
2017,09,02,09,08,20.20
2017,09,02,09,09,20.20
2017,09,02,09,10,20.30
2017,09,02,09,11,20.40
2017,09,02,09,12,20.40
2017,09,02,09,13,20.50
2017,09,02,09,14,20.50
2017,09,02,09,15,20.60
2017,09,02,09,16,20.60
2017,09,02,09,17,20.70
2017,09,02,09,18,20.70
2017,09,02,09,19,20.70
2017,09,02,09,20,20.80
2017,09,02,09,21,20.90
2017,09,02,09,22,20.90
2017,09,02,09,23,21.00
2017,09,02,09,24,21.00
2017,09,02,09,25,21.10
2017,09,02,09,26,21.10
2017,09,02,09,27,21.20
2017,09,02,09,28,21.20
2017,09,02,09,29,21.20
2017,09,02,09,30,21.30
2017,09,02,09,31,21.30
2017,09,02,09,32,21.30
2017,09,02,09,33,21.40
2017,09,02,09,34,21.40
2017,09,02,09,35,21.50
2017,09,02,09,36,21.50
2017,09,02,09,37,21.60
2017,09,02,09,38,21.60
2017,09,02,09,39,21.70
2017,09,02,09,40,21.70
2017,09,02,09,41,21.80
2017,09,02,09,42,21.90
2017,09,02,09,43,21.90
2017,09,02,09,44,22.00
2017,09,02,09,45,22.10
2017,09,02,09,46,22.10
2017,09,02,09,47,22.10
2017,09,02,09,48,22.10
2017,09,02,09,49,22.10
2017,09,02,09,50,22.30
2017,09,02,09,51,22.30
2017,09,02,09,52,22.30
2017,09,02,09,53,22.30
2017,09,02,09,54,22.30
2017,09,02,09,55,22.30
2017,09,02,09,56,22.40
2017,09,02,09,57,22.40
2017,09,02,09,58,22.50
2017,09,02,09,59,22.50
2017,09,02,10,00,22.60
2017,09,02,10,01,22.70
2017,09,02,10,02,22.80
2017,09,02,10,03,22.80
2017,09,02,10,04,22.90
2017,09,02,10,05,22.90
2017,09,02,10,06,22.90
2017,09,02,10,07,22.90
2017,09,02,10,08,22.90
2017,09,02,10,09,22.90
2017,09,02,10,10,22.90
2017,09,02,10,11,23.00
2017,09,02,10,12,23.00
2017,09,02,10,13,23.10
2017,09,02,10,14,23.10
2017,09,02,10,15,23.20
2017,09,02,10,16,23.20
2017,09,02,10,17,23.30
2017,09,02,10,18,23.30
2017,09,02,10,19,23.40
2017,09,02,10,20,23.50
2017,09,02,10,21,23.60
2017,09,02,10,22,23.70
2017,09,02,10,23,23.80
2017,09,02,10,24,23.90
2017,09,02,10,25,24.00
2017,09,02,10,26,24.10
2017,09,02,10,27,24.20
2017,09,02,10,28,24.20
2017,09,02,10,29,24.30
2017,09,02,10,30,24.30
2017,09,02,10,31,24.30
2017,09,02,10,32,24.40
2017,09,02,10,33,24.40
2017,09,02,10,34,24.50
2017,09,02,10,35,24.60
2017,09,02,10,36,24.60
2017,09,02,10,37,24.60
2017,09,02,10,38,24.60
2017,09,02,10,39,24.70
2017,09,02,10,40,24.80
2017,09,02,10,41,24.80
2017,09,02,10,42,24.90
2017,09,02,10,43,24.90
2017,09,02,10,44,25.00
2017,09,02,10,45,25.00
2017,09,02,10,46,25.00
2017,09,02,10,47,25.00
2017,09,02,10,48,25.00
2017,09,02,10,49,24.90
2017,09,02,10,50,24.90
2017,09,02,10,51,24.80
2017,09,02,10,52,24.80
2017,09,02,10,53,24.90
2017,09,02,10,54,24.90
2017,09,02,10,55,24.90
2017,09,02,10,56,25.00
2017,09,02,10,57,25.10
2017,09,02,10,58,25.10
2017,09,02,10,59,25.20
2017,09,02,11,00,25.20
2017,09,02,11,01,25.20
2017,09,02,11,02,25.20
2017,09,02,11,03,25.20
2017,09,02,11,04,25.20
2017,09,02,11,05,25.30
2017,09,02,11,06,25.30
2017,09,02,11,07,25.30
2017,09,02,11,08,25.30
2017,09,02,11,09,25.40
2017,09,02,11,10,25.40
2017,09,02,11,11,25.50
2017,09,02,11,12,25.50
2017,09,02,11,13,25.50
2017,09,02,11,14,25.50
2017,09,02,11,15,25.50
2017,09,02,11,16,25.50
2017,09,02,11,17,25.50
2017,09,02,11,18,25.50
2017,09,02,11,19,25.50
2017,09,02,11,20,25.60
2017,09,02,11,21,25.60
2017,09,02,11,22,25.70
2017,09,02,11,23,25.70
2017,09,02,11,24,25.70
2017,09,02,11,25,25.70
2017,09,02,11,26,25.70
2017,09,02,11,27,25.70
2017,09,02,11,28,25.70
2017,09,02,11,29,25.80
2017,09,02,11,30,25.80
2017,09,02,11,31,25.70
2017,09,02,11,32,25.70
2017,09,02,11,33,25.70
2017,09,02,11,34,25.70
2017,09,02,11,35,25.70
2017,09,02,11,36,25.70
2017,09,02,11,37,25.60
2017,09,02,11,38,25.60
2017,09,02,11,39,25.60
2017,09,02,11,40,25.50
2017,09,02,11,41,25.50
2017,09,02,11,42,25.40
2017,09,02,11,43,25.40
2017,09,02,11,44,25.40
2017,09,02,11,45,25.40
2017,09,02,11,46,25.40
2017,09,02,11,47,25.50
2017,09,02,11,48,25.50
2017,09,02,11,49,25.50
2017,09,02,11,50,25.60
2017,09,02,11,51,25.60
2017,09,02,11,52,25.60
2017,09,02,11,53,25.60
2017,09,02,11,54,25.60
2017,09,02,11,55,25.60
2017,09,02,11,56,25.60
2017,09,02,11,57,25.60
2017,09,02,11,58,25.70
2017,09,02,11,59,25.70
2017,09,02,12,00,25.70
2017,09,02,12,01,25.70
2017,09,02,12,02,25.80
2017,09,02,12,03,25.80
2017,09,02,12,04,25.90
2017,09,02,12,05,26.00
2017,09,02,12,06,26.10
2017,09,02,12,07,26.20
2017,09,02,12,08,26.30
2017,09,02,12,09,26.30
2017,09,02,12,10,26.30
2017,09,02,12,11,26.30
2017,09,02,12,12,26.30
2017,09,02,12,13,26.30
2017,09,02,12,14,26.30
2017,09,02,12,15,26.30
2017,09,02,12,16,26.30
2017,09,02,12,17,26.30
2017,09,02,12,18,26.40
2017,09,02,12,19,26.40
2017,09,02,12,20,26.40
2017,09,02,12,21,26.50
2017,09,02,12,22,26.50
2017,09,02,12,23,26.60
2017,09,02,12,24,26.70
2017,09,02,12,25,26.70
2017,09,02,12,26,26.80
2017,09,02,12,27,26.80
2017,09,02,12,28,26.80
2017,09,02,12,29,26.80
2017,09,02,12,30,26.80
2017,09,02,12,31,26.80
2017,09,02,12,32,26.80
2017,09,02,12,33,26.80
2017,09,02,12,34,26.80
2017,09,02,12,35,26.80
2017,09,02,12,36,26.80
2017,09,02,12,37,26.90
2017,09,02,12,38,26.90
2017,09,02,12,39,26.90
2017,09,02,12,40,26.90
2017,09,02,12,41,26.90
2017,09,02,12,42,26.90
2017,09,02,12,43,26.90
2017,09,02,12,44,26.90
2017,09,02,12,45,26.90
2017,09,02,12,46,26.90
2017,09,02,12,47,27.00
2017,09,02,12,48,27.10
2017,09,02,12,49,27.10
2017,09,02,12,50,27.20
2017,09,02,12,51,27.20
2017,09,02,12,52,27.20
2017,09,02,12,53,27.20
2017,09,02,12,54,27.20
2017,09,02,12,55,27.10
2017,09,02,12,56,27.10
2017,09,02,12,57,27.10
2017,09,02,12,58,27.00
2017,09,02,12,59,27.00
2017,09,02,13,00,27.00
2017,09,02,13,01,27.00
2017,09,02,13,02,27.00
2017,09,02,13,03,26.90
2017,09,02,13,04,26.90
2017,09,02,13,05,26.90
2017,09,02,13,06,26.90
2017,09,02,13,07,26.90
2017,09,02,13,08,26.90
2017,09,02,13,09,26.90
2017,09,02,13,10,26.90
2017,09,02,13,11,26.90
2017,09,02,13,12,26.90
2017,09,02,13,13,26.90
2017,09,02,13,14,26.90
2017,09,02,13,15,27.00
2017,09,02,13,16,27.00
2017,09,02,13,17,27.10
2017,09,02,13,18,27.10
2017,09,02,13,19,27.20
2017,09,02,13,20,27.20
2017,09,02,13,21,27.20
2017,09,02,13,22,27.20
2017,09,02,13,23,27.20
2017,09,02,13,24,27.20
2017,09,02,13,25,27.10
2017,09,02,13,26,27.10
2017,09,02,13,27,27.10
2017,09,02,13,28,27.10
2017,09,02,13,29,27.20
2017,09,02,13,30,27.20
2017,09,02,13,31,27.30
2017,09,02,13,32,27.30
2017,09,02,13,33,27.30
2017,09,02,13,34,27.30
2017,09,02,13,35,27.30
2017,09,02,13,36,27.30
2017,09,02,13,37,27.30
2017,09,02,13,38,27.30
2017,09,02,13,39,27.30
2017,09,02,13,40,27.40
2017,09,02,13,41,27.40
2017,09,02,13,42,27.50
2017,09,02,13,43,27.60
2017,09,02,13,44,27.60
2017,09,02,13,45,27.60
2017,09,02,13,46,27.60
2017,09,02,13,47,27.60
2017,09,02,13,48,27.60
2017,09,02,13,49,27.60
2017,09,02,13,50,27.60
2017,09,02,13,51,27.60
2017,09,02,13,52,27.60
2017,09,02,13,53,27.60
2017,09,02,13,54,27.60
2017,09,02,13,55,27.60
2017,09,02,13,56,27.50
2017,09,02,13,57,27.40
2017,09,02,13,58,27.40
2017,09,02,13,59,27.40
2017,09,02,14,00,27.40
2017,09,02,14,01,27.40
2017,09,02,14,02,27.40
2017,09,02,14,03,27.50
2017,09,02,14,04,27.50
2017,09,02,14,05,27.50
2017,09,02,14,06,27.50
2017,09,02,14,07,27.50
2017,09,02,14,08,27.50
2017,09,02,14,09,27.50
2017,09,02,14,10,27.50
2017,09,02,14,11,27.60
2017,09,02,14,12,27.60
2017,09,02,14,13,27.50
2017,09,02,14,14,27.50
2017,09,02,14,15,27.40
2017,09,02,14,16,27.40
2017,09,02,14,17,27.40
2017,09,02,14,18,27.30
2017,09,02,14,19,27.30
2017,09,02,14,20,27.30
2017,09,02,14,21,27.20
2017,09,02,14,22,27.20
2017,09,02,14,23,27.10
2017,09,02,14,24,27.10
2017,09,02,14,25,27.10
2017,09,02,14,26,27.10
2017,09,02,14,27,27.10
2017,09,02,14,28,27.10
2017,09,02,14,29,27.10
2017,09,02,14,30,27.10
2017,09,02,14,31,27.10
2017,09,02,14,32,27.00
2017,09,02,14,33,27.00
2017,09,02,14,34,27.00
2017,09,02,14,35,27.00
2017,09,02,14,36,27.00
2017,09,02,14,37,26.90
2017,09,02,14,38,26.90
2017,09,02,14,39,26.90
2017,09,02,14,40,26.90
2017,09,02,14,41,27.00
2017,09,02,14,42,27.00
2017,09,02,14,43,27.00
2017,09,02,14,44,27.10
2017,09,02,14,45,27.10
2017,09,02,14,46,27.00
2017,09,02,14,47,27.10
2017,09,02,14,48,27.10
2017,09,02,14,49,27.10
2017,09,02,14,50,27.20
2017,09,02,14,51,27.20
2017,09,02,14,52,27.20
2017,09,02,14,53,27.30
2017,09,02,14,54,27.30
2017,09,02,14,55,27.20
2017,09,02,14,56,27.20
2017,09,02,14,57,27.20
2017,09,02,14,58,27.20
2017,09,02,14,59,27.20
2017,09,02,15,00,27.10
2017,09,02,15,01,27.10
2017,09,02,15,02,27.00
2017,09,02,15,03,26.90
2017,09,02,15,04,26.90
2017,09,02,15,05,26.90
2017,09,02,15,06,26.80
2017,09,02,15,07,26.80
2017,09,02,15,08,26.80
2017,09,02,15,09,26.70
2017,09,02,15,10,26.70
2017,09,02,15,11,26.70
2017,09,02,15,12,26.70
2017,09,02,15,13,26.70
2017,09,02,15,14,26.70
2017,09,02,15,15,26.70
2017,09,02,15,16,26.70
2017,09,02,15,17,26.70
2017,09,02,15,18,26.80
2017,09,02,15,19,26.80
2017,09,02,15,20,26.80
2017,09,02,15,21,26.80
2017,09,02,15,22,26.70
2017,09,02,15,23,26.70
2017,09,02,15,24,26.60
2017,09,02,15,25,26.50
2017,09,02,15,26,26.40
2017,09,02,15,27,26.40
2017,09,02,15,28,26.40
2017,09,02,15,29,26.40
2017,09,02,15,30,26.30
2017,09,02,15,31,26.30
2017,09,02,15,32,26.30
2017,09,02,15,33,26.30
2017,09,02,15,34,26.30
2017,09,02,15,35,26.30
2017,09,02,15,36,26.30
2017,09,02,15,37,26.30
2017,09,02,15,38,26.30
2017,09,02,15,39,26.20
2017,09,02,15,40,26.20
2017,09,02,15,41,26.20
2017,09,02,15,42,26.30
2017,09,02,15,43,26.30
2017,09,02,15,44,26.30
2017,09,02,15,45,26.30
2017,09,02,15,46,26.30
2017,09,02,15,47,26.40
2017,09,02,15,48,26.40
2017,09,02,15,49,26.50
2017,09,02,15,50,26.50
2017,09,02,15,51,26.50
2017,09,02,15,52,26.60
2017,09,02,15,53,26.60
2017,09,02,15,54,26.70
2017,09,02,15,55,26.70
2017,09,02,15,56,26.80
2017,09,02,15,57,26.80
2017,09,02,15,58,26.90
2017,09,02,15,59,26.90
2017,09,02,16,00,26.90
2017,09,02,16,01,27.00
2017,09,02,16,02,27.00
2017,09,02,16,03,27.10
2017,09,02,16,04,27.10
2017,09,02,16,05,27.20
2017,09,02,16,06,27.20
2017,09,02,16,07,27.30
2017,09,02,16,08,27.30
2017,09,02,16,09,27.40
2017,09,02,16,10,27.40
2017,09,02,16,11,27.50
2017,09,02,16,12,27.60
2017,09,02,16,13,27.60
2017,09,02,16,14,27.60
2017,09,02,16,15,27.70
2017,09,02,16,16,27.70
2017,09,02,16,17,27.70
2017,09,02,16,18,27.80
2017,09,02,16,19,27.80
2017,09,02,16,20,27.80
2017,09,02,16,21,27.80
2017,09,02,16,22,27.80
2017,09,02,16,23,27.90
2017,09,02,16,24,27.90
2017,09,02,16,25,28.00
2017,09,02,16,26,28.00
2017,09,02,16,27,28.00
2017,09,02,16,28,28.00
2017,09,02,16,29,28.00
2017,09,02,16,30,28.00
2017,09,02,16,31,27.90
2017,09,02,16,32,27.90
2017,09,02,16,33,27.90
2017,09,02,16,34,27.90
2017,09,02,16,35,27.90
2017,09,02,16,36,27.90
2017,09,02,16,37,27.90
2017,09,02,16,38,27.80
2017,09,02,16,39,27.80
2017,09,02,16,40,27.80
2017,09,02,16,41,27.80
2017,09,02,16,42,27.80
2017,09,02,16,43,27.90
2017,09,02,16,44,27.90
2017,09,02,16,45,27.90
2017,09,02,16,46,27.90
2017,09,02,16,47,27.90
2017,09,02,16,48,28.00
2017,09,02,16,49,28.00
2017,09,02,16,50,28.10
2017,09,02,16,51,28.10
2017,09,02,16,52,28.10
2017,09,02,16,53,28.20
2017,09,02,16,54,28.20
2017,09,02,16,55,28.30
2017,09,02,16,56,28.30
2017,09,02,16,57,28.40
2017,09,02,16,58,28.40
2017,09,02,16,59,28.50
2017,09,02,17,00,28.50
2017,09,02,17,01,28.50
2017,09,02,17,02,28.50
2017,09,02,17,03,28.50
2017,09,02,17,04,28.50
2017,09,02,17,05,28.50
2017,09,02,17,06,28.40
2017,09,02,17,07,28.40
2017,09,02,17,08,28.40
2017,09,02,17,09,28.30
2017,09,02,17,10,28.30
2017,09,02,17,11,28.20
2017,09,02,17,12,28.20
2017,09,02,17,13,28.10
2017,09,02,17,14,28.10
2017,09,02,17,15,28.00
2017,09,02,17,16,28.00
2017,09,02,17,17,28.00
2017,09,02,17,18,28.00
2017,09,02,17,19,27.90